#timestamp,LO_Frequency,Hit,StdDev 
1623304815.3,286047002.3,P
1623304835.1,286046999.9,N
1623304855.8,286047001.2,N
1623304875.7,286046998.6,N
1623304895.5,286047000.2,N
1623304915.3,286047000.2,N
1623304935.2,286046998.1,N
1623304955.0,286047002.1,N
1623304955.9,286047002.1,N
1623304975.8,286046999.8,N
1623304995.6,286046998.4,N
1623305015.4,286046998.2,N
1623305035.3,286046997.7,N
1623305055.1,286047000.9,N
1623305075.8,286046999.3,N
1623305095.7,286047000.3,N
1623305115.5,286046999.8,N
1623305135.4,286047000.4,N
1623305155.2,286047002.1,N
1623305175.0,286047000.3,N
1623305175.9,286047000.3,N
1623305195.8,286046999.8,N
1623305215.6,286046998.6,N
1623305235.4,286046998.2,N
1623305255.3,286047001.0,N
1623305275.1,286047002.3,N
1623305295.9,286047004.2,Y
1623305315.7,286047003.9,P
1623305335.5,286047002.5,N
1623305355.4,286046998.5,N
1623305375.2,286046998.2,N
1623305395.0,286046998.2,N
1623305395.9,286046998.2,N
1623305415.8,286047000.8,N
1623305435.6,286047001.6,N
1623305455.5,286047000.9,N
1623305475.3,286046999.8,N
1623305495.1,286046999.6,N
1623305515.9,286046998.1,N
1623305535.7,286046999.0,N
1623305555.5,286046997.5,N
1623305575.4,286046997.1,N
1623305595.2,286046997.0,N
1623305615.1,286046996.7,N
1623305616.0,286046996.7,N
1623305635.8,286046999.4,N
1623305655.6,286046996.5,N
1623305675.5,286046997.4,N
1623305695.3,286046998.8,N
1623305715.1,286047002.7,N
1623305735.9,286047000.9,N
1623305755.7,286047005.5,N
1623305775.5,286047004.3,N
1623305795.4,286047001.7,N
1623305815.2,286047004.2,N
1623305835.1,286047003.4,N
1623305836.0,286047003.4,N
1623305855.8,286047002.1,N
1623305875.6,286047001.6,N
1623305895.5,286047002.7,N
1623305915.3,286047000.5,N
1623305935.1,286046998.1,N
1623305955.9,286046999.1,N
1623305975.7,286046999.2,N
1623305995.6,286046996.6,N
1623306015.4,286046999.2,N
1623306035.2,286046998.6,N
1623306055.1,286046996.6,N
1623306056.0,286046996.6,N
1623306075.8,286046997.1,N
1623306095.6,286046995.0,N
1623306115.5,286046993.7,N
1623306135.3,286046995.4,N
1623306155.2,286046998.8,N
1623306175.9,286047000.8,N
1623306195.7,286047004.1,N
1623306215.6,286046998.9,N
1623306235.4,286046997.8,N
1623306255.2,286047001.0,N
1623306275.1,286047001.8,N
1623306276.0,286047001.8,N
1623306295.8,286047004.4,N
1623306315.7,286047000.6,N
1623306335.5,286046998.2,N
1623306355.3,286046998.3,N
1623306375.2,286046998.5,N
1623306395.9,286046998.8,N
1623306415.7,286046998.3,N
1623306435.6,286046998.8,N
1623306455.4,286046997.5,N
1623306475.2,286046997.1,N
1623306495.1,286046996.9,N
1623306496.0,286046996.9,N
1623306515.8,286046996.7,N
1623306535.7,286046995.2,N
1623306555.5,286046993.4,N
1623306575.3,286046996.3,N
1623306595.2,286046994.1,N
1623306615.0,286046992.4,N
1623306615.9,286046992.4,N
1623306635.7,286046994.5,N
1623306655.6,286046993.8,N
1623306675.4,286046992.6,N
1623306695.3,286046993.4,N
1623306715.1,286046994.4,N
1623306716.0,286046994.4,N
1623306735.8,286046993.9,N
1623306755.7,286046993.3,N
1623306775.5,286046995.3,N
1623306795.3,286046999.1,N
1623306815.2,286046996.8,N
1623306835.0,286046999.3,N
1623306835.9,286046999.3,N
1623306855.8,286046999.6,N
1623306875.6,286046995.5,N
1623306895.4,286046996.1,N
1623306915.3,286046999.6,N
1623306935.1,286046997.4,N
1623306955.8,286046994.0,N
1623306975.7,286046995.8,N
1623306995.5,286046997.9,N
1623307015.4,286046996.2,N
1623307035.2,286046998.0,N
1623307055.0,286046995.6,N
1623307055.9,286046995.6,N
1623307075.8,286046995.1,N
1623307095.6,286046995.2,N
1623307115.4,286046993.5,N
1623307135.3,286046992.6,Y
1623307155.1,286046995.8,P
1623307175.9,286046993.7,P
1623307195.7,286046994.8,P
1623307215.5,286046999.1,N
1623307235.0,286046998.3,N
1623307235.9,286046998.3,N
1623307255.8,286046996.5,N
1623307275.6,286046998.9,N
1623307295.4,286047002.5,N
1623307315.3,286047001.7,N
1623307335.1,286047002.3,N
1623307355.9,286046998.9,N
1623307375.7,286046998.6,N
1623307395.5,286046998.1,N
1623307415.4,286046999.0,N
1623307435.2,286046999.2,N
1623307455.1,286046997.1,N
1623307456.0,286046997.1,N
1623307475.8,286046999.1,N
1623307495.6,286046997.9,N
1623307515.5,286046993.6,N
1623307535.3,286046992.4,Y
1623307555.1,286046994.2,P
1623307575.9,286046992.5,P
1623307595.7,286046994.0,N
1623307615.6,286046995.5,N
1623307635.4,286046998.1,N
1623307655.2,286046995.7,N
1623307675.1,286046993.4,Y
1623307676.0,286046993.4,P
1623307695.8,286046998.2,N
1623307715.7,286047000.8,N
1623307735.5,286047001.2,N
1623307755.3,286047000.0,N
1623307775.2,286047000.3,N
1623307795.0,286047002.4,N
1623307795.9,286047002.4,N
1623307815.7,286047005.4,N
1623307835.6,286047000.2,N
1623307855.4,286047002.0,N
1623307875.3,286046999.7,N
1623307895.1,286047002.5,N
1623307896.0,286047002.5,N
1623307915.8,286047001.0,N
1623307935.7,286047000.1,N
1623307955.5,286047004.3,N
1623307975.4,286047002.8,N
1623307995.2,286047002.2,N
1623308015.0,286047001.7,N
1623308015.9,286047001.7,N
1623308035.8,286047003.8,N
1623308055.6,286047005.2,N
1623308075.4,286047007.4,N
1623308095.3,286047006.4,N
1623308115.1,286047006.8,N
1623308135.9,286047003.3,N
1623308155.7,286047005.7,N
1623308175.5,286047010.2,Y
1623308195.4,286047007.0,P
1623308215.2,286047005.7,N
1623308235.0,286047003.8,N
1623308236.0,286047003.8,N
1623308255.8,286047001.7,N
1623308275.6,286047004.4,N
1623308295.5,286047003.4,N
1623308315.3,286047009.1,Y
1623308335.1,286047000.5,P
1623308355.9,286046999.7,N
1623308375.7,286046999.9,N
1623308395.6,286047000.5,N
